| time (UTC) | temp F | wind direction | speed knots | gust knots | rain 1hr in | rain 24hr in | rain mn in | humidity % | barometer mb |
| 20260905173017 | 84 | 112 | 6.1 | 9.6 | 0.00 | 0.00 | 0.00 | 30 | 1009.8 |
| 20260905172516 | 84 | 90 | 4.3 | 7.8 | 0.00 | 0.00 | 0.00 | 31 | 1009.9 |
| 20260905172017 | 84 | 90 | 4.3 | 7.8 | 0.00 | 0.00 | 0.00 | 30 | 1009.8 |
| 20260905171518 | 84 | 90 | 4.3 | 9.6 | 0.00 | 0.00 | 0.00 | 32 | 1009.7 |
| 20260905171017 | 84 | 90 | 4.3 | 9.6 | 0.00 | 0.00 | 0.00 | 31 | 1009.9 |
| 20260905170517 | 84 | 90 | 3.5 | 7.0 | 0.00 | 0.00 | 0.00 | 32 | 1009.8 |
| 20260905170016 | 83 | 112 | 4.3 | 7.8 | 0.00 | 0.00 | 0.00 | 34 | 1009.9 |
| 20260905165537 | 82 | 112 | 4.3 | 8.7 | 0.00 | 0.00 | 0.00 | 35 | 1009.8 |
| 20260905165017 | 82 | 112 | 3.5 | 6.1 | 0.00 | 0.00 | 0.00 | 35 | 1009.9 |
| 20260905164517 | 81 | 112 | 3.5 | 8.7 | 0.00 | 0.00 | 0.00 | 35 | 1009.9 |
| 20260905164037 | 81 | 112 | 4.3 | 7.0 | 0.00 | 0.00 | 0.00 | 35 | 1009.9 |
| 20260905163516 | 80 | 90 | 2.6 | 7.0 | 0.00 | 0.00 | 0.00 | 36 | 1009.8 |
| 20260905163037 | 80 | 90 | 2.6 | 5.2 | 0.00 | 0.00 | 0.00 | 36 | 1009.9 |
| 20260905162517 | 79 | 90 | 1.7 | 4.3 | 0.00 | 0.00 | 0.00 | 38 | 1009.7 |
| 20260905162016 | 79 | 112 | 2.6 | 4.3 | 0.00 | 0.00 | 0.00 | 38 | 1009.9 |
| 20260905161516 | 79 | 112 | 3.5 | 6.1 | 0.00 | 0.00 | 0.00 | 37 | 1009.9 |
| 20260905161017 | 79 | 90 | 2.6 | 5.2 | 0.00 | 0.00 | 0.00 | 39 | 1009.9 |
| 20260905160537 | 79 | 112 | 3.5 | 6.1 | 0.00 | 0.00 | 0.00 | 39 | 1009.8 |
| 20260905160037 | 78 | 112 | 3.5 | 7.0 | 0.00 | 0.00 | 0.00 | 40 | 1009.7 |
| 20260905155516 | 77 | 90 | 3.5 | 5.2 | 0.00 | 0.00 | 0.00 | 40 | 1009.6 |
| 20260905155017 | 78 | 112 | 4.3 | 8.7 | 0.00 | 0.00 | 0.00 | 40 | 1009.4 |
| 20260905154516 | 78 | 112 | 6.1 | 8.7 | 0.00 | 0.00 | 0.00 | 39 | 1009.3 |
| 20260905154016 | 78 | 90 | 5.2 | 7.8 | 0.00 | 0.00 | 0.00 | 41 | 1009.6 |
| 20260905153519 | 78 | 112 | 5.2 | 7.8 | 0.00 | 0.00 | 0.00 | 38 | 1009.5 |
| 20260905153036 | 78 | 112 | 4.3 | 7.8 | 0.00 | 0.00 | 0.00 | 38 | 1009.4 |
| 20260905152536 | 78 | 90 | 3.5 | 6.1 | 0.00 | 0.00 | 0.00 | 38 | 1009.4 |
| 20260905152057 | 78 | 135 | 2.6 | 6.1 | 0.00 | 0.00 | 0.00 | 37 | 1009.3 |
| 20260905151538 | 77 | 112 | 2.6 | 4.3 | 0.00 | 0.00 | 0.00 | 36 | 1009.2 |
| 20260905151017 | 77 | 112 | 2.6 | 3.5 | 0.00 | 0.00 | 0.00 | 37 | 1009.1 |
| 20260905150516 | 76 | 112 | 2.6 | 3.5 | 0.00 | 0.00 | 0.00 | 37 | 1009.0 |
| 20260905150036 | 76 | 135 | 2.6 | 3.5 | 0.00 | 0.00 | 0.00 | 39 | 1009.0 |
| 20260905145516 | 76 | 135 | 1.7 | 3.5 | 0.00 | 0.00 | 0.00 | 38 | 1009.0 |
| 20260905145016 | 76 | 225 | 1.7 | 2.6 | 0.00 | 0.00 | 0.00 | 39 | 1009.2 |
| 20260905144516 | 75 | 225 | 0.9 | 2.6 | 0.00 | 0.00 | 0.00 | 37 | 1009.1 |
| 20260905144017 | 75 | 225 | 1.7 | 3.5 | 0.00 | 0.00 | 0.00 | 38 | 1009.1 |
| 20260905143537 | 74 | 202 | 0.9 | 1.7 | 0.00 | 0.00 | 0.00 | 39 | 1009.1 |
| 20260905143017 | 74 | 202 | 2.6 | 6.1 | 0.00 | 0.00 | 0.00 | 39 | 1009.0 |
| 20260905142557 | 74 | 225 | 3.5 | 6.1 | 0.00 | 0.00 | 0.00 | 38 | 1009.1 |
| 20260905142016 | 74 | 225 | 4.3 | 5.2 | 0.00 | 0.00 | 0.00 | 39 | 1009.3 |
| 20260905141516 | 72 | 225 | 2.6 | 5.2 | 0.00 | 0.00 | 0.00 | 41 | 1009.3 |
| 20260905141016 | 71 | 225 | 0.9 | 2.6 | 0.00 | 0.00 | 0.00 | 46 | 1009.3 |
| 20260905140516 | 69 | 225 | 0.9 | 0.9 | 0.00 | 0.00 | 0.00 | 54 | 1009.4 |
| 20260905140017 | 69 | 225 | 0.9 | 1.7 | 0.00 | 0.00 | 0.00 | 50 | 1009.2 |
| 20260905135516 | 70 | 0.0 | 0.9 | 0.00 | 0.00 | 0.00 | 49 | 1009.3 | |
| 20260905135016 | 69 | 0.0 | 1.7 | 0.00 | 0.00 | 0.00 | 47 | 1009.1 | |
| 20260905134516 | 67 | 225 | 0.9 | 1.7 | 0.00 | 0.00 | 0.00 | 51 | 1009.1 |
| 20260905134017 | 64 | 0.0 | 0.0 | 0.00 | 0.00 | 0.00 | 59 | 1009.0 | |
| 20260905133516 | 62 | 0.0 | 0.0 | 0.00 | 0.00 | 0.00 | 61 | 1008.9 | |
| 20260905133016 | 61 | 0.0 | 0.0 | 0.00 | 0.00 | 0.00 | 60 | 1008.8 | |
| 20260905132536 | 60 | 0.0 | 0.0 | 0.00 | 0.00 | 0.00 | 59 | 1008.7 | |
| 20260905132016 | 60 | 0.0 | 0.0 | 0.00 | 0.00 | 0.00 | 63 | 1008.7 | |
| 20260905131516 | 60 | 0.0 | 1.7 | 0.00 | 0.00 | 0.00 | 61 | 1008.8 | |
| 20260905131016 | 59 | 0.0 | 0.0 | 0.00 | 0.00 | 0.00 | 60 | 1008.7 | |
| 20260905130536 | 57 | 0.0 | 0.9 | 0.00 | 0.00 | 0.00 | 68 | 1008.5 | |
| 20260905130017 | 56 | 0.0 | 0.9 | 0.00 | 0.00 | 0.00 | 66 | 1008.4 | |
| 20260905125517 | 56 | 0.0 | 0.0 | 0.00 | 0.00 | 0.00 | 67 | 1008.4 | |
| 20260905125036 | 55 | 0.0 | 0.0 | 0.00 | 0.00 | 0.00 | 70 | 1008.3 | |
| 20260905124350 | 56 | 0.0 | 1.7 | 0.00 | 0.00 | 0.00 | 66 | 1008.2 | |
| 20260905124348 | 57 | 0.0 | 0.0 | 0.00 | 0.00 | 0.00 | 62 | 1008.6 |